Weather History for Mora, MN

Change the Weather History Date:

Thursday, December 19, 2013

  Actual Average Record
Temperature  
Mean Temperature 14 °F -  
Max Temperature 19 °F 22 °F 43 °F (1956)
Min Temperature 10 °F 0 °F -52 °F (1983)
Degree Days  
Heating Degree Days 50    
Moisture  
Dew Point 7 °F    
Average Humidity 74    
Maximum Humidity 86    
Minimum Humidity 62    
Precipitation  
Precipitation 0.03 in - - ()
Sea Level Pressure  
Sea Level Pressure 30.04 in    
Wind  
Wind Speed 6 mph (NNE)    
Max Wind Speed 10 mph    
Max Gust Speed -    
Visibility 8 miles    
Events Snow    
Averages and records for this station are not official NWS values.
T = Trace of Precipitation, MM = Missing Value Source: NWS Daily Summary

Daily Weather History Graph

Daily Weather History Graph

Search for Another Location

Airport:

Trip Planner

Search our weather history database for the weather conditions in past years. The results will help you decide how hot, cold, wet, or windy it might be!

Date:

Astronomy

Dec. 19, 2013 Rise Set
Actual Time 7:50 AM CST 4:30 PM CST
Civil Twilight 7:16 AM CST 5:04 PM CST
Nautical Twilight 6:38 AM CST 5:42 PM CST
Astronomical Twilight 6:01 AM CST 6:19 PM CST
Moon 7:03 PM CST (12/19) 9:03 AM CST (12/19)
Length of Visible Light 9h 48m
Length of Day
8h 39m
Waning Gibbous, 95% of the Moon is Illuminated
Dec 19
Waning Gibbous
Dec 25
Last Quarter
Jan 1
New
Jan 7
First Quarter
Jan 15
Full

Hourly Weather History & Observations

Time (CST) Temp. Windchill Dew Point Humidity Pressure Visibility Wind Dir Wind Speed Gust Speed Precip Events Conditions
12:13 AM 19.4 °F 11.5 °F 15.8 °F 86% 29.81 in 10.0 mi NNW 5.8 mph - N/A   Clear
12:33 AM 19.4 °F 12.8 °F 14.0 °F 80% 29.82 in 10.0 mi NNW 4.6 mph - N/A   Clear
12:53 AM 19.4 °F 10.4 °F 14.0 °F 80% 29.83 in 10.0 mi NNW 6.9 mph - N/A   Clear
1:13 AM 19.4 °F 12.8 °F 12.2 °F 74% 29.84 in 10.0 mi NNW 4.6 mph - N/A   Clear
1:33 AM 19.4 °F 10.4 °F 12.2 °F 74% 29.85 in 10.0 mi North 6.9 mph - N/A   Clear
1:53 AM 19.4 °F 7.9 °F 12.2 °F 74% 29.87 in 10.0 mi NNW 10.4 mph - N/A   Clear
2:13 AM 19.4 °F 10.4 °F 12.2 °F 74% 29.87 in 10.0 mi North 6.9 mph - N/A   Clear
2:33 AM 17.6 °F 9.3 °F 12.2 °F 79% 29.89 in 10.0 mi North 5.8 mph - N/A   Mostly Cloudy
2:53 AM 17.6 °F 10.7 °F 12.2 °F 79% 29.90 in 10.0 mi North 4.6 mph - N/A   Overcast
3:13 AM 17.6 °F 8.2 °F 12.2 °F 79% 29.90 in 10.0 mi North 6.9 mph - N/A   Overcast
3:33 AM 17.6 °F 10.7 °F 10.4 °F 73% 29.92 in 10.0 mi North 4.6 mph - N/A   Mostly Cloudy
3:53 AM 17.6 °F 5.7 °F 10.4 °F 73% 29.92 in 10.0 mi North 10.4 mph - N/A   Scattered Clouds
4:13 AM 17.6 °F 8.2 °F 10.4 °F 73% 29.94 in 10.0 mi NNE 6.9 mph - N/A   Mostly Cloudy
4:33 AM 17.6 °F 8.2 °F 10.4 °F 73% 29.95 in 10.0 mi North 6.9 mph - N/A   Overcast
4:53 AM 15.8 °F 6.1 °F 10.4 °F 79% 29.97 in 10.0 mi North 6.9 mph - N/A   Overcast
5:13 AM 14.0 °F 6.5 °F 8.6 °F 79% 29.99 in 10.0 mi North 4.6 mph - N/A   Overcast
5:33 AM 14.0 °F 5.1 °F 8.6 °F 79% 29.99 in 10.0 mi North 5.8 mph - N/A   Overcast
5:53 AM 14.0 °F 5.1 °F 8.6 °F 79% 29.99 in 10.0 mi North 5.8 mph - N/A   Scattered Clouds
6:13 AM 14.0 °F 3.9 °F 8.6 °F 79% 30.00 in 10.0 mi North 6.9 mph - N/A Snow Light Snow
6:33 AM 14.0 °F 2.0 °F 8.6 °F 79% 30.01 in 10.0 mi North 9.2 mph - N/A Snow Light Snow
6:53 AM 12.2 °F 6.1 °F 5.0 °F 73% 30.02 in 10.0 mi North 3.5 mph - N/A Snow Light Snow
7:13 AM 12.2 °F 4.3 °F 5.0 °F 73% 30.03 in 10.0 mi North 4.6 mph - N/A   Overcast
7:33 AM 12.2 °F 4.3 °F 5.0 °F 73% 30.03 in 10.0 mi North 4.6 mph - N/A   Mostly Cloudy
7:53 AM 10.4 °F - 5.0 °F 79% 30.05 in 10.0 mi Calm Calm - N/A   Scattered Clouds
8:13 AM 10.4 °F 4.0 °F 3.2 °F 73% 30.06 in 10.0 mi NNE 3.5 mph - N/A   Clear
8:33 AM 10.4 °F 0.8 °F 3.2 °F 73% 30.07 in 10.0 mi North 5.8 mph - N/A   Clear
8:53 AM 10.4 °F 2.2 °F 3.2 °F 73% 30.08 in 10.0 mi NNE 4.6 mph - N/A   Clear
9:13 AM 10.4 °F 2.2 °F 3.2 °F 73% 30.08 in 10.0 mi NNE 4.6 mph - N/A   Clear
9:33 AM 12.2 °F 6.1 °F 3.2 °F 67% 30.09 in 10.0 mi NE 3.5 mph - N/A   Clear
9:53 AM 10.4 °F -1.5 °F 3.2 °F 73% 30.10 in 10.0 mi NE 8.1 mph - N/A   Clear
10:13 AM 12.2 °F 1.7 °F 3.2 °F 67% 30.11 in 10.0 mi NE 6.9 mph - N/A   Clear
10:33 AM 12.2 °F 6.1 °F 3.2 °F 67% 30.12 in 10.0 mi NNE 3.5 mph - N/A   Clear
10:53 AM 12.2 °F 6.1 °F 3.2 °F 67% 30.12 in 10.0 mi North 3.5 mph - N/A   Scattered Clouds
11:13 AM 12.2 °F 1.7 °F 3.2 °F 67% 30.11 in 10.0 mi NNE 6.9 mph - N/A   Mostly Cloudy
11:33 AM 12.2 °F 1.7 °F 1.4 °F 62% 30.10 in 10.0 mi NNE 6.9 mph - N/A   Overcast
11:53 AM 12.2 °F 1.7 °F 3.2 °F 67% 30.10 in 10.0 mi NNE 6.9 mph - N/A   Mostly Cloudy
12:13 PM 14.0 °F 5.1 °F 3.2 °F 62% 30.09 in 10.0 mi NNE 5.8 mph - N/A   Mostly Cloudy
12:33 PM 14.0 °F 3.9 °F 3.2 °F 62% 30.09 in 10.0 mi NE 6.9 mph - N/A   Scattered Clouds
12:53 PM 14.0 °F 6.5 °F 3.2 °F 62% 30.07 in 10.0 mi NE 4.6 mph - N/A   Mostly Cloudy
1:13 PM 14.0 °F 3.9 °F 3.2 °F 62% 30.06 in 10.0 mi NE 6.9 mph - N/A   Scattered Clouds
1:33 PM 14.0 °F 2.9 °F 3.2 °F 62% 30.06 in 10.0 mi ENE 8.1 mph - N/A   Scattered Clouds
1:53 PM 14.0 °F 3.9 °F 3.2 °F 62% 30.06 in 10.0 mi ENE 6.9 mph - N/A   Mostly Cloudy
2:13 PM 14.0 °F 8.2 °F 3.2 °F 62% 30.07 in 10.0 mi ENE 3.5 mph - N/A   Mostly Cloudy
2:33 PM 14.0 °F 6.5 °F 3.2 °F 62% 30.07 in 10.0 mi NE 4.6 mph - N/A   Overcast
2:53 PM 14.0 °F 5.1 °F 3.2 °F 62% 30.09 in 10.0 mi NNE 5.8 mph - N/A   Overcast
3:13 PM 14.0 °F 5.1 °F 3.2 °F 62% 30.08 in 10.0 mi NE 5.8 mph - N/A   Overcast
3:33 PM 14.0 °F 5.1 °F 3.2 °F 62% 30.08 in 10.0 mi North 5.8 mph - N/A   Overcast
3:53 PM 12.2 °F 4.3 °F 3.2 °F 67% 30.08 in 10.0 mi NNE 4.6 mph - N/A   Overcast
4:13 PM 12.2 °F - 3.2 °F 67% 30.08 in 10.0 mi Calm Calm - N/A   Overcast
4:33 PM 12.2 °F 1.7 °F 3.2 °F 67% 30.08 in 10.0 mi NNE 6.9 mph - N/A   Overcast
4:53 PM 12.2 °F 2.9 °F 3.2 °F 67% 30.08 in 10.0 mi NNE 5.8 mph - N/A   Overcast
5:13 PM 12.2 °F 4.3 °F 3.2 °F 67% 30.09 in 10.0 mi NNE 4.6 mph - N/A   Overcast
5:33 PM 12.2 °F 1.7 °F 5.0 °F 73% 30.09 in 10.0 mi NNE 6.9 mph - N/A Snow Light Snow
5:53 PM 12.2 °F 2.9 °F 5.0 °F 73% 30.09 in 2.0 mi NNE 5.8 mph - N/A Snow Light Snow
6:13 PM 12.2 °F 6.1 °F 6.8 °F 79% 30.08 in 2.0 mi NNE 3.5 mph - N/A Snow Light Snow
6:33 PM 12.2 °F 4.3 °F 6.8 °F 79% 30.08 in 2.0 mi NE 4.6 mph - N/A Snow Light Snow
6:53 PM 12.2 °F 1.7 °F 8.6 °F 85% 30.08 in 1.8 mi NNE 6.9 mph - N/A Snow Light Snow
7:13 PM 12.2 °F 4.3 °F 6.8 °F 79% 30.11 in 1.5 mi North 4.6 mph - 0.01 in Snow Light Snow
7:33 PM 12.2 °F 2.9 °F 8.6 °F 85% 30.12 in 1.2 mi NNE 5.8 mph - 0.01 in Snow Light Snow
7:53 PM 12.2 °F 2.9 °F 8.6 °F 85% 30.11 in 1.0 mi NNE 5.8 mph - 0.02 in Snow Light Snow
8:13 PM 12.2 °F 4.3 °F 8.6 °F 85% 30.11 in 1.5 mi NNE 4.6 mph - N/A Snow Light Snow
8:33 PM 12.2 °F 2.9 °F 8.6 °F 85% 30.10 in 2.0 mi NNE 5.8 mph - N/A Snow Light Snow
8:53 PM 12.2 °F 6.1 °F 8.6 °F 85% 30.10 in 3.0 mi NNE 3.5 mph - N/A Snow Light Snow
9:13 PM 12.2 °F 2.9 °F 6.8 °F 79% 30.10 in 1.5 mi NNE 5.8 mph - N/A Snow Light Snow
9:33 PM 12.2 °F 6.1 °F 8.6 °F 85% 30.09 in 1.5 mi NNE 3.5 mph - N/A Snow Light Snow
9:53 PM 12.2 °F 6.1 °F 8.6 °F 85% 30.09 in 1.8 mi NNE 3.5 mph - 0.01 in Snow Light Snow
10:13 PM 12.2 °F 4.3 °F 8.6 °F 85% 30.09 in 3.0 mi NNE 4.6 mph - N/A Snow Light Snow
10:33 PM 12.2 °F 6.1 °F 8.6 °F 85% 30.09 in 3.0 mi NNE 3.5 mph - N/A Snow Light Snow
10:53 PM 12.2 °F 6.1 °F 8.6 °F 85% 30.08 in 2.0 mi NNE 3.5 mph - N/A Snow Light Snow
11:13 PM 12.2 °F 2.9 °F 8.6 °F 85% 30.08 in 4.0 mi NNE 5.8 mph - N/A Snow Light Snow
11:33 PM 12.2 °F 4.3 °F 6.8 °F 79% 30.08 in 2.5 mi NNE 4.6 mph - N/A Snow Light Snow
11:53 PM 12.2 °F 2.9 °F 6.8 °F 79% 30.07 in 2.5 mi NNE 5.8 mph - N/A Snow Light Snow